Time,TemperatureF,DewpointF,PressureIn,WindDirection,WindDirectionDegrees,WindSpeedMPH,WindSpeedGustMPH,Humidity,HourlyPrecipIn,Conditions,Clouds,dailyrainin,SoftwareType,DateUTC
2013-03-26 00:00:00,36.0,23.0,-100.00,North,4,5.0,-999.0,59,0.00,,,0.00,,2013-03-26 05:00:00,
2013-03-26 00:32:00,36.0,23.0,-100.00,North,4,5.0,-999.0,59,0.00,,,0.00,,2013-03-26 05:32:00,
2013-03-26 00:42:00,36.0,23.0,-100.00,North,4,5.0,-999.0,59,0.00,,,0.00,,2013-03-26 05:42:00,
2013-03-26 00:52:00,36.0,23.0,-100.00,North,4,5.0,-999.0,59,0.00,,,0.00,,2013-03-26 05:52:00,
2013-03-26 01:00:00,34.0,22.0,-100.00,NNW,345,6.0,-999.0,60,0.00,,,0.00,,2013-03-26 06:00:00,
2013-03-26 01:32:00,34.0,22.0,-100.00,NNW,345,6.0,-999.0,60,0.00,,,0.00,,2013-03-26 06:32:00,
2013-03-26 01:43:00,34.0,22.0,-100.00,NNW,345,6.0,-999.0,60,0.00,,,0.00,,2013-03-26 06:43:00,
2013-03-26 01:52:00,34.0,22.0,-100.00,NNW,345,6.0,-999.0,60,0.00,,,0.00,,2013-03-26 06:52:00,
2013-03-26 02:00:00,34.0,21.0,-100.00,North,351,7.0,-999.0,59,0.00,,,0.00,,2013-03-26 07:00:00,
2013-03-26 02:33:00,34.0,21.0,-100.00,North,351,7.0,-999.0,59,0.00,,,0.00,,2013-03-26 07:33:00,
2013-03-26 02:43:00,34.0,21.0,-100.00,North,351,7.0,-999.0,59,0.00,,,0.00,,2013-03-26 07:43:00,
2013-03-26 02:53:00,34.0,21.0,-100.00,North,351,7.0,-999.0,59,0.00,,,0.00,,2013-03-26 07:53:00,
2013-03-26 03:00:00,32.0,22.0,-100.00,NNW,333,1.0,-999.0,66,0.00,,,0.00,,2013-03-26 08:00:00,
2013-03-26 03:32:00,32.0,22.0,-100.00,NNW,333,1.0,-999.0,66,0.00,,,0.00,,2013-03-26 08:32:00,
2013-03-26 03:42:00,32.0,22.0,-100.00,NNW,333,1.0,-999.0,66,0.00,,,0.00,,2013-03-26 08:42:00,
2013-03-26 03:52:00,32.0,22.0,-100.00,NNW,333,1.0,-999.0,66,0.00,,,0.00,,2013-03-26 08:52:00,
2013-03-26 04:00:00,27.0,22.0,-100.00,South,170,2.0,-999.0,80,0.00,,,0.00,,2013-03-26 09:00:00,
2013-03-26 04:33:00,27.0,22.0,-100.00,South,170,2.0,-999.0,80,0.00,,,0.00,,2013-03-26 09:33:00,
2013-03-26 04:43:00,27.0,22.0,-100.00,South,170,2.0,-999.0,80,0.00,,,0.00,,2013-03-26 09:43:00,
2013-03-26 04:52:00,27.0,22.0,-100.00,South,170,2.0,-999.0,80,0.00,,,0.00,,2013-03-26 09:52:00,
2013-03-26 05:00:00,30.0,21.0,-100.00,North,349,1.0,-999.0,69,0.00,,,0.00,,2013-03-26 10:00:00,
2013-03-26 05:32:00,30.0,21.0,-100.00,North,349,1.0,-999.0,69,0.00,,,0.00,,2013-03-26 10:32:00,
2013-03-26 05:43:00,30.0,21.0,-100.00,North,349,1.0,-999.0,69,0.00,,,0.00,,2013-03-26 10:43:00,
2013-03-26 05:53:00,30.0,21.0,-100.00,North,349,1.0,-999.0,69,0.00,,,0.00,,2013-03-26 10:53:00,
2013-03-26 06:00:00,30.0,19.0,-100.00,North,353,7.0,-999.0,63,0.00,,,0.00,,2013-03-26 11:00:00,
2013-03-26 06:32:00,30.0,19.0,-100.00,North,353,7.0,-999.0,63,0.00,,,0.00,,2013-03-26 11:32:00,
2013-03-26 06:43:00,30.0,19.0,-100.00,North,353,7.0,-999.0,63,0.00,,,0.00,,2013-03-26 11:43:00,
2013-03-26 06:52:00,30.0,19.0,-100.00,North,353,7.0,-999.0,63,0.00,,,0.00,,2013-03-26 11:52:00,
2013-03-26 07:00:00,29.0,20.0,-100.00,North,349,7.0,-999.0,66,0.00,,,0.00,,2013-03-26 12:00:00,
2013-03-26 07:32:00,29.0,20.0,-100.00,North,349,7.0,-999.0,66,0.00,,,0.00,,2013-03-26 12:32:00,
2013-03-26 07:43:00,29.0,20.0,-100.00,North,349,7.0,-999.0,66,0.00,,,0.00,,2013-03-26 12:43:00,
2013-03-26 07:52:00,29.0,20.0,-100.00,North,349,7.0,-999.0,66,0.00,,,0.00,,2013-03-26 12:52:00,
2013-03-26 08:00:00,28.0,20.0,-100.00,SSW,207,2.0,-999.0,73,0.00,,,0.00,,2013-03-26 13:00:00,
2013-03-26 08:32:00,28.0,20.0,-100.00,SSW,207,2.0,-999.0,73,0.00,,,0.00,,2013-03-26 13:32:00,
2013-03-26 08:42:00,28.0,20.0,-100.00,SSW,207,2.0,-999.0,73,0.00,,,0.00,,2013-03-26 13:42:00,
2013-03-26 08:52:00,28.0,20.0,-100.00,SSW,207,2.0,-999.0,73,0.00,,,0.00,,2013-03-26 13:52:00,
2013-03-26 09:00:00,33.0,22.0,-100.00,West,274,3.0,-999.0,64,0.00,,,0.00,,2013-03-26 14:00:00,
2013-03-26 09:32:00,33.0,22.0,-100.00,West,274,3.0,-999.0,64,0.00,,,0.00,,2013-03-26 14:32:00,
2013-03-26 09:42:00,33.0,22.0,-100.00,West,274,3.0,-999.0,64,0.00,,,0.00,,2013-03-26 14:42:00,
2013-03-26 09:53:00,33.0,22.0,-100.00,West,274,3.0,-999.0,64,0.00,,,0.00,,2013-03-26 14:53:00,
2013-03-26 10:00:00,36.0,21.0,-100.00,NNW,334,6.0,-999.0,55,0.00,,,0.00,,2013-03-26 15:00:00,
2013-03-26 10:33:00,36.0,21.0,-100.00,NNW,334,6.0,-999.0,55,0.00,,,0.00,,2013-03-26 15:33:00,
2013-03-26 10:43:00,36.0,21.0,-100.00,NNW,334,6.0,-999.0,55,0.00,,,0.00,,2013-03-26 15:43:00,
2013-03-26 10:53:00,36.0,21.0,-100.00,NNW,334,6.0,-999.0,55,0.00,,,0.00,,2013-03-26 15:53:00,
2013-03-26 11:00:00,38.0,22.0,-100.00,North,6,10.0,-999.0,51,0.00,,,0.00,,2013-03-26 16:00:00,
2013-03-26 11:32:00,38.0,22.0,-100.00,North,6,10.0,-999.0,51,0.00,,,0.00,,2013-03-26 16:32:00,
2013-03-26 11:42:00,38.0,22.0,-100.00,North,6,10.0,-999.0,51,0.00,,,0.00,,2013-03-26 16:42:00,
2013-03-26 11:53:00,38.0,22.0,-100.00,North,6,10.0,-999.0,51,0.00,,,0.00,,2013-03-26 16:53:00,
2013-03-26 12:00:00,41.0,21.0,-100.00,NNE,15,8.0,-999.0,45,0.00,,,0.00,,2013-03-26 17:00:00,
2013-03-26 12:32:00,41.0,21.0,-100.00,NNE,15,8.0,-999.0,45,0.00,,,0.00,,2013-03-26 17:32:00,
2013-03-26 12:42:00,41.0,21.0,-100.00,NNE,15,8.0,-999.0,45,0.00,,,0.00,,2013-03-26 17:42:00,
2013-03-26 12:53:00,41.0,21.0,-100.00,NNE,15,8.0,-999.0,45,0.00,,,0.00,,2013-03-26 17:53:00,
2013-03-26 13:00:00,43.0,18.0,-100.00,NNE,15,10.0,-999.0,36,0.00,,,0.00,,2013-03-26 18:00:00,
2013-03-26 13:34:00,43.0,18.0,-100.00,NNE,15,10.0,-999.0,36,0.00,,,0.00,,2013-03-26 18:34:00,
2013-03-26 13:42:00,43.0,18.0,-100.00,NNE,15,10.0,-999.0,36,0.00,,,0.00,,2013-03-26 18:42:00,
2013-03-26 13:53:00,43.0,18.0,-100.00,NNE,15,10.0,-999.0,36,0.00,,,0.00,,2013-03-26 18:53:00,
2013-03-26 14:00:00,45.0,17.0,-100.00,North,3,6.0,-999.0,32,0.00,,,0.00,,2013-03-26 19:00:00,
2013-03-26 14:32:00,45.0,17.0,-100.00,North,3,6.0,-999.0,32,0.00,,,0.00,,2013-03-26 19:32:00,
2013-03-26 14:42:00,45.0,17.0,-100.00,North,3,6.0,-999.0,32,0.00,,,0.00,,2013-03-26 19:42:00,
2013-03-26 14:53:00,45.0,17.0,-100.00,North,3,6.0,-999.0,32,0.00,,,0.00,,2013-03-26 19:53:00,
2013-03-26 15:00:00,48.0,18.0,-100.00,North,11,8.0,-999.0,30,0.00,,,0.00,,2013-03-26 20:00:00,
2013-03-26 15:32:00,48.0,18.0,-100.00,North,11,8.0,-999.0,30,0.00,,,0.00,,2013-03-26 20:32:00,
2013-03-26 15:43:00,48.0,18.0,-100.00,North,11,8.0,-999.0,30,0.00,,,0.00,,2013-03-26 20:43:00,
2013-03-26 15:52:00,48.0,18.0,-100.00,North,11,8.0,-999.0,30,0.00,,,0.00,,2013-03-26 20:52:00,
2013-03-26 16:00:00,51.0,20.0,-100.00,NNW,337,4.0,-999.0,29,0.00,,,0.00,,2013-03-26 21:00:00,
2013-03-26 16:33:00,51.0,20.0,-100.00,NNW,337,4.0,-999.0,29,0.00,,,0.00,,2013-03-26 21:33:00,
2013-03-26 16:43:00,51.0,20.0,-100.00,NNW,337,4.0,-999.0,29,0.00,,,0.00,,2013-03-26 21:43:00,
2013-03-26 16:52:00,51.0,20.0,-100.00,NNW,337,4.0,-999.0,29,0.00,,,0.00,,2013-03-26 21:52:00,
2013-03-26 17:00:00,53.0,20.0,-100.00,NNW,327,3.0,-999.0,27,0.00,,,0.00,,2013-03-26 22:00:00,
2013-03-26 17:33:00,53.0,20.0,-100.00,NNW,327,3.0,-999.0,27,0.00,,,0.00,,2013-03-26 22:33:00,
2013-03-26 17:42:00,53.0,20.0,-100.00,NNW,327,3.0,-999.0,27,0.00,,,0.00,,2013-03-26 22:42:00,
2013-03-26 17:52:00,53.0,20.0,-100.00,NNW,327,3.0,-999.0,27,0.00,,,0.00,,2013-03-26 22:52:00,
2013-03-26 18:00:00,54.0,18.0,-100.00,NW,320,1.0,-999.0,24,0.00,,,0.00,,2013-03-26 23:00:00,
2013-03-26 18:32:00,54.0,18.0,-100.00,NW,320,1.0,-999.0,24,0.00,,,0.00,,2013-03-26 23:32:00,
2013-03-26 18:43:00,54.0,18.0,-100.00,NW,320,1.0,-999.0,24,0.00,,,0.00,,2013-03-26 23:43:00,
2013-03-26 18:53:00,54.0,18.0,-100.00,NW,320,1.0,-999.0,24,0.00,,,0.00,,2013-03-26 23:53:00,
2013-03-26 20:00:00,48.0,20.0,-100.00,ESE,103,1.0,-999.0,32,0.00,,,0.00,,2013-03-27 01:00:00,
2013-03-26 20:33:00,48.0,20.0,-100.00,ESE,103,1.0,-999.0,32,0.00,,,0.00,,2013-03-27 01:33:00,
2013-03-26 20:43:00,48.0,20.0,-100.00,ESE,103,1.0,-999.0,32,0.00,,,0.00,,2013-03-27 01:43:00,
2013-03-26 20:53:00,48.0,20.0,-100.00,ESE,103,1.0,-999.0,32,0.00,,,0.00,,2013-03-27 01:53:00,
2013-03-26 21:00:00,45.0,26.0,-100.00,WSW,242,1.0,-999.0,47,0.00,,,0.00,,2013-03-27 02:00:00,
2013-03-26 21:32:00,45.0,26.0,-100.00,WSW,242,1.0,-999.0,47,0.00,,,0.00,,2013-03-27 02:32:00,
2013-03-26 21:42:00,45.0,26.0,-100.00,WSW,242,1.0,-999.0,47,0.00,,,0.00,,2013-03-27 02:42:00,
2013-03-26 21:53:00,45.0,26.0,-100.00,WSW,242,1.0,-999.0,47,0.00,,,0.00,,2013-03-27 02:53:00,
2013-03-26 22:00:00,42.0,29.0,-100.00,North,350,1.0,-999.0,59,0.00,,,0.00,,2013-03-27 03:00:00,
2013-03-26 22:33:00,42.0,29.0,-100.00,North,350,1.0,-999.0,59,0.00,,,0.00,,2013-03-27 03:33:00,
2013-03-26 22:42:00,42.0,29.0,-100.00,North,350,1.0,-999.0,59,0.00,,,0.00,,2013-03-27 03:42:00,
2013-03-26 22:53:00,42.0,29.0,-100.00,North,350,1.0,-999.0,59,0.00,,,0.00,,2013-03-27 03:53:00,
2013-03-26 23:00:00,39.0,25.0,-100.00,SSE,154,0.0,-999.0,58,0.00,,,0.00,,2013-03-27 04:00:00,
2013-03-26 23:33:00,39.0,25.0,-100.00,SSE,154,0.0,-999.0,58,0.00,,,0.00,,2013-03-27 04:33:00,
2013-03-26 23:43:00,39.0,25.0,-100.00,SSE,154,0.0,-999.0,58,0.00,,,0.00,,2013-03-27 04:43:00,
2013-03-26 23:52:00,39.0,25.0,-100.00,SSE,154,0.0,-999.0,58,0.00,,,0.00,,2013-03-27 04:52:00,